Date String (YYYY-MM-DD hh:mm:ss) UTC,Instrument flags,absolute air pressure of the measurement (hPa),sample flow rate (lpm),inlet stack bypass flow (lpm),air temperature of the measurement (°C),ambient temperature measured by the external sensor (°C),aerosol sample conditioner tube jacket temperature (°C),OPC LED temperature (°C),internal box temperature (°C),relative humidity of the measurement (%),span deviation,mass concentration of particles derived from Lorenz-Mie calculation of OPC scattering (μg/m³),mass concentration of particles derived from Lorenz-Mie calculation of OPC scattering (μg/m³),mass concentration of particles derived from Lorenz-Mie calculation of OPC scattering (μg/m³)
DateTimeUTC,F1_M11,P_M11,Q1_M11,Q2_M11,T1_M11,T2_M11,T3_M11,T4_M11,T5_M11,U1_M11,ZSPAN_M11,X2_M11,X0_M11,X1_M11
2024-04-12 07:00:00,SystemResetWarning,0829.9,5.00,000.00,025.0,024.2,000.0,033.5,026.8,010.6,0000.0,0005.17,0015.11,0002.92
2024-04-12 07:01:00,SystemResetWarning,0830.0,4.99,000.00,025.0,024.2,000.0,033.5,026.8,010.7,0000.0,0005.24,0014.87,0002.93
2024-04-12 07:02:00,SystemResetWarning,0830.0,5.00,000.00,025.0,024.2,000.0,033.5,026.8,010.5,0000.0,0005.29,0014.56,0002.91
2024-04-12 07:03:00,SystemResetWarning,0830.1,4.99,000.00,024.9,024.2,000.0,033.5,026.8,010.5,0000.0,0005.21,0014.14,0002.88
2024-04-12 07:04:00,SystemResetWarning,0830.0,5.01,000.00,024.9,024.2,000.0,033.5,026.7,010.4,0000.0,0005.19,0014.05,0002.88
2024-04-12 07:05:00,SystemResetWarning,0830.0,5.01,000.00,024.9,024.2,000.0,033.5,026.7,010.1,0000.0,0005.15,0013.91,0002.87
2024-04-12 07:06:00,SystemResetWarning,0830.0,5.00,000.00,024.9,024.2,000.0,033.5,026.7,010.2,0000.0,0005.12,0013.43,0002.87
2024-04-12 07:07:00,SystemResetWarning,0830.0,4.99,000.00,024.9,024.1,000.0,033.5,026.7,010.3,0000.0,0005.15,0013.21,0002.88
2024-04-12 07:08:00,SystemResetWarning,0830.0,4.99,000.00,024.9,024.1,000.0,033.5,026.7,010.3,0000.0,0005.14,0013.06,0002.86
2024-04-12 07:09:00,SystemResetWarning,0830.0,5.00,000.00,024.9,024.1,000.0,033.5,026.7,010.3,0000.0,0005.11,0012.77,0002.83
2024-04-12 07:10:00,SystemResetWarning,0830.0,5.01,000.00,024.9,024.1,000.0,033.4,026.7,010.7,0000.0,0005.15,0012.99,0002.82
2024-04-12 07:11:00,SystemResetWarning,0830.0,5.01,000.00,024.9,024.1,000.0,033.4,026.7,010.7,0000.0,0005.14,0012.28,0002.83
2024-04-12 07:12:00,SystemResetWarning,0829.9,5.00,000.00,024.9,024.1,000.0,033.4,026.7,010.8,0000.0,0005.05,0013.11,0002.84
2024-04-12 07:13:00,SystemResetWarning,0829.9,4.99,000.00,024.9,024.1,000.0,033.4,026.7,010.6,0000.0,0005.01,0013.42,0002.85
2024-04-12 07:14:00,SystemResetWarning,0829.9,4.99,000.00,024.9,024.1,000.0,033.4,026.7,010.4,0000.0,0005.02,0013.10,0002.88
2024-04-12 07:15:00,SystemResetWarning,0829.9,5.00,000.00,024.9,024.1,000.0,033.4,026.7,010.4,0000.0,0005.03,0013.23,0002.87
2024-04-12 07:16:00,SystemResetWarning,0829.9,5.01,000.00,024.9,024.1,000.0,033.4,026.7,010.4,0000.0,0005.03,0013.27,0002.86
2024-04-12 07:17:00,SystemResetWarning,0829.8,5.00,000.00,024.8,024.1,000.0,033.4,026.7,010.3,0000.0,0005.00,0013.54,0002.84
2024-04-12 07:18:00,SystemResetWarning,0829.8,5.01,000.00,024.8,024.1,000.0,033.4,026.6,010.2,0000.0,0004.98,0013.79,0002.84
2024-04-12 07:19:00,SystemResetWarning,0829.8,5.00,000.00,024.8,024.0,000.0,033.4,026.6,009.9,0000.0,0005.03,0014.12,0002.86
2024-04-12 07:20:00,SystemResetWarning,0829.8,5.00,000.00,024.8,024.0,000.0,033.4,026.6,009.8,0000.0,0005.09,0014.34,0002.87
2024-04-12 07:21:00,SystemResetWarning,0829.8,4.99,000.00,024.8,024.0,000.0,033.4,026.6,009.6,0000.0,0005.10,0014.17,0002.88
2024-04-12 07:22:00,SystemResetWarning,0829.7,5.00,000.00,024.8,024.0,000.0,033.4,026.6,009.7,0000.0,0005.09,0014.03,0002.85
2024-04-12 07:23:00,SystemResetWarning,0829.7,5.00,000.00,024.8,024.0,000.0,033.3,026.6,009.6,0000.0,0005.12,0013.71,0002.82
2024-04-12 07:24:00,SystemResetWarning,0829.7,5.01,000.00,024.8,024.0,000.0,033.3,026.6,009.5,0000.0,0005.10,0013.23,0002.81
2024-04-12 07:25:00,SystemResetWarning,0829.7,5.01,000.00,024.8,024.0,000.0,033.3,026.6,009.7,0000.0,0005.05,0013.13,0002.78
2024-04-12 07:26:00,SystemResetWarning,0829.7,4.99,000.00,024.7,024.0,000.0,033.3,026.6,009.8,0000.0,0005.01,0013.15,0002.73
2024-04-12 07:27:00,SystemResetWarning,0829.7,4.99,000.00,024.7,023.9,000.0,033.3,026.6,009.9,0000.0,0005.00,0013.53,0002.70
2024-04-12 07:28:00,SystemResetWarning,0829.7,4.99,000.00,024.7,023.9,000.0,033.3,026.6,009.9,0000.0,0005.04,0013.44,0002.69
2024-04-12 07:29:00,SystemResetWarning,0829.7,5.00,000.00,024.7,023.9,000.0,033.3,026.5,009.9,0000.0,0005.08,0013.48,0002.67
2024-04-12 07:30:00,SystemResetWarning,0829.7,5.00,000.00,024.7,023.9,000.0,033.3,026.5,009.9,0000.0,0005.05,0014.02,0002.64
2024-04-12 07:31:00,SystemResetWarning,0829.7,5.00,000.00,024.7,023.8,000.0,033.3,026.5,009.8,0000.0,0005.02,0014.56,0002.63
2024-04-12 07:32:00,SystemResetWarning,0829.7,4.99,000.00,024.6,023.8,000.0,033.2,026.5,009.8,0000.0,0004.96,0014.40,0002.61
2024-04-12 07:33:00,SystemResetWarning,0829.7,5.00,000.00,024.6,023.8,000.0,033.2,026.5,009.7,0000.0,0004.95,0014.87,0002.59
2024-04-12 07:34:00,SystemResetWarning,0829.7,5.00,000.00,024.6,023.8,000.0,033.2,026.4,010.0,0000.0,0004.90,0014.48,0002.57
2024-04-12 07:35:00,SystemResetWarning,0829.7,5.01,000.00,024.6,023.8,000.0,033.2,026.4,010.0,0000.0,0004.89,0014.07,0002.56
2024-04-12 07:36:00,SystemResetWarning,0829.6,5.00,000.00,024.6,023.8,000.0,033.2,026.4,010.2,0000.0,0004.92,0014.09,0002.56
2024-04-12 07:37:00,SystemResetWarning,0829.6,4.99,000.00,024.6,023.8,000.0,033.2,026.4,009.9,0000.0,0004.92,0013.82,0002.59
2024-04-12 07:38:00,SystemResetWarning,0829.7,5.00,000.00,024.6,023.7,000.0,033.2,026.4,009.7,0000.0,0004.93,0013.60,0002.59
2024-04-12 07:39:00,SystemResetWarning,0829.7,4.99,000.00,024.6,023.7,000.0,033.2,026.4,009.9,0000.0,0004.94,0014.00,0002.60
2024-04-12 07:40:00,SystemResetWarning,0829.7,5.00,000.00,024.6,023.7,000.0,033.1,026.4,009.9,0000.0,0004.94,0014.20,0002.59
2024-04-12 07:41:00,SystemResetWarning,0829.7,5.01,000.00,024.5,023.7,000.0,033.1,026.4,009.9,0000.0,0004.94,0013.47,0002.58
2024-04-12 07:42:00,SystemResetWarning,0829.7,5.01,000.00,024.5,023.7,000.0,033.1,026.3,009.7,0000.0,0004.95,0012.83,0002.56
2024-04-12 07:43:00,SystemResetWarning,0829.7,5.01,000.00,024.5,023.7,000.0,033.1,026.3,009.4,0000.0,0004.98,0013.04,0002.56
2024-04-12 07:44:00,SystemResetWarning,0829.7,5.00,000.00,024.5,023.7,000.0,033.1,026.3,009.4,0000.0,0005.00,0012.96,0002.57
2024-04-12 07:45:00,SystemResetWarning,0829.7,5.00,000.00,024.5,023.7,000.0,033.1,026.3,009.7,0000.0,0005.01,0013.27,0002.56
2024-04-12 07:46:00,SystemResetWarning,0829.6,5.00,000.00,024.5,023.7,000.0,033.1,026.3,009.8,0000.0,0005.05,0013.63,0002.53
2024-04-12 07:47:00,SystemResetWarning,0829.7,5.00,000.00,024.5,023.7,000.0,033.1,026.3,009.6,0000.0,0005.09,0013.74,0002.55
2024-04-12 07:48:00,SystemResetWarning,0829.6,5.00,000.00,024.5,023.7,000.0,033.1,026.3,009.1,0000.0,0005.10,0013.86,0002.54
2024-04-12 07:49:00,SystemResetWarning,0829.6,5.00,000.00,024.5,023.7,000.0,033.1,026.3,008.9,0000.0,0005.15,0014.14,0002.54
2024-04-12 07:50:00,SystemResetWarning,0829.6,5.00,000.00,024.5,023.7,000.0,033.0,026.3,009.1,0000.0,0005.15,0013.86,0002.55
2024-04-12 07:51:00,SystemResetWarning,0829.6,4.99,000.00,024.5,023.7,000.0,033.0,026.3,009.5,0000.0,0005.12,0013.50,0002.53
2024-04-12 07:52:00,SystemResetWarning,0829.6,5.01,000.00,024.5,023.7,000.0,033.0,026.3,009.4,0000.0,0005.11,0013.38,0002.54
2024-04-12 07:53:00,SystemResetWarning,0829.6,5.01,000.00,024.5,023.7,000.0,033.0,026.3,009.0,0000.0,0005.12,0013.36,0002.57
2024-04-12 07:54:00,SystemResetWarning,0829.6,5.00,000.00,024.4,023.7,000.0,033.0,026.3,009.3,0000.0,0005.17,0013.56,0002.56
2024-04-12 07:55:00,SystemResetWarning,0829.6,4.99,000.00,024.4,023.7,000.0,033.0,026.3,009.2,0000.0,0005.18,0013.31,0002.56
2024-04-12 07:56:00,SystemResetWarning,0829.6,4.99,000.00,024.4,023.7,000.0,033.0,026.3,009.0,0000.0,0005.16,0012.99,0002.57
2024-04-12 07:57:00,SystemResetWarning,0829.6,5.00,000.00,024.4,023.6,000.0,033.0,026.2,008.9,0000.0,0005.12,0012.43,0002.58
2024-04-12 07:58:00,SystemResetWarning,0829.6,5.01,000.00,024.4,023.6,000.0,033.0,026.2,009.2,0000.0,0005.13,0012.57,0002.56
2024-04-12 07:59:00,SystemResetWarning,0829.6,4.99,000.00,024.4,023.6,000.0,033.0,026.2,009.2,0000.0,0005.14,0012.71,0002.56
